Afton Municipal Airport, WY

4:26 AM MST on November 20, 2019 (GMT -0700)
Afton Municipal

Weather History for KAFO - October, 2019

Change the Weather History Date:

Friday, October 18, 2019

  Actual Average Record
Temperature  
Mean Temperature 34 °F -  
Max Temperature 37 °F 58 °F 64 °F (2014)
Min Temperature 32 °F 22 °F 19 °F (2017)
Degree Days  
Heating Degree Days 30    
Moisture  
Dew Point 30 °F    
Average Humidity 89    
Maximum Humidity 100    
Minimum Humidity 70    
Precipitation  
Precipitation 0.00 in - - ()
Sea Level Pressure  
Sea Level Pressure 29.95 in    
Wind  
Wind Speed 2 mph ()    
Max Wind Speed 13 mph    
Max Gust Speed -    
Visibility 9.7 miles    
Events Snow    
Averages and records for this station are not official NWS values.
T = Trace of Precipitation, MM = Missing Value Source: Averaged Metar Reports

Daily Weather History Graph

Daily Weather History Graph

Search for Another Location

Airport or City:

Astronomy

Oct. 18, 2019 Rise Set
Actual Time 7:40 AM MDT 6:36 PM MDT
Civil Twilight 7:11 AM MDT 7:05 PM MDT
Nautical Twilight 6:38 AM MDT 7:38 PM MDT
Astronomical Twilight 6:06 AM MDT 8:10 PM MDT
Moon 9:50 PM MDT (10/18) 12:22 PM MDT (10/18)
Length of Visible Light 11h 53m
Length of Day
10h 56m
Waning Gibbous, 78% of the Moon is Illuminated
Oct 18
Waning Gibbous
Oct 21
Last Quarter
Oct 27
New
Nov 4
First Quarter
Nov 12
Full

Hourly Weather History & Observations

Time (MDT) Temp. Windchill Dew Point Humidity Pressure Visibility Wind Dir Wind Speed Gust Speed Precip Events Conditions
12:35 AM 32.0 °F - 32.0 °F 100% 29.86 in 10.0 mi Calm Calm - N/A   Overcast
12:55 AM 32.0 °F - 32.0 °F 100% 29.84 in 10.0 mi Calm Calm - N/A   Overcast
1:15 AM 32.0 °F - 32.0 °F 100% 29.83 in 10.0 mi North - - N/A   Overcast
1:35 AM 32.0 °F - 32.0 °F 100% 29.84 in 10.0 mi North - - N/A   Overcast
1:55 AM 32.0 °F - 32.0 °F 100% 29.84 in 10.0 mi Calm Calm - N/A   Mostly Cloudy
2:15 AM 33.8 °F - 32.0 °F 93% 29.85 in 10.0 mi Calm Calm - N/A   Mostly Cloudy
2:35 AM 33.8 °F - 32.0 °F 93% 29.85 in 10.0 mi Calm Calm - N/A   Mostly Cloudy
2:55 AM 32.0 °F - 32.0 °F 100% 29.86 in 10.0 mi Calm Calm - N/A   Scattered Clouds
3:15 AM 32.0 °F - 32.0 °F 100% 29.86 in 10.0 mi Calm Calm - N/A   Mostly Cloudy
3:35 AM 32.0 °F - 32.0 °F 100% 29.86 in 10.0 mi Calm Calm - N/A   Overcast
3:55 AM 32.0 °F 28.7 °F 32.0 °F 100% 29.86 in 10.0 mi NE 3.5 mph - N/A   Overcast
4:15 AM 32.0 °F - 32.0 °F 100% 29.87 in 10.0 mi Calm Calm - N/A   Overcast
4:35 AM 32.0 °F - 32.0 °F 100% 29.88 in 10.0 mi Calm Calm - N/A   Overcast
4:55 AM 33.8 °F - 32.0 °F 93% 29.89 in 10.0 mi Calm Calm - N/A   Overcast
5:15 AM 33.8 °F 29.6 °F 32.0 °F 93% 29.89 in 10.0 mi North 4.6 mph - N/A   Overcast
5:35 AM 33.8 °F - 32.0 °F 93% 29.89 in 10.0 mi Calm Calm - N/A   Overcast
5:55 AM 33.8 °F - 30.2 °F 87% 29.90 in 10.0 mi Calm Calm - N/A   Overcast
6:15 AM 32.0 °F - 32.0 °F 100% 29.90 in 10.0 mi Calm Calm - N/A   Overcast
6:35 AM 33.8 °F 30.8 °F 32.0 °F 93% 29.91 in 10.0 mi NNE 3.5 mph - N/A   Overcast
6:55 AM 33.8 °F - 32.0 °F 93% 29.91 in 10.0 mi Calm Calm - N/A   Overcast
7:15 AM 32.0 °F 28.7 °F 30.2 °F 93% 29.92 in 10.0 mi North 3.5 mph - N/A   Overcast
7:35 AM 32.0 °F - 30.2 °F 93% 29.92 in 10.0 mi Calm Calm - N/A   Overcast
7:55 AM 32.0 °F - 28.4 °F 87% 29.92 in 10.0 mi Calm Calm - N/A   Overcast
8:15 AM 32.0 °F - 30.2 °F 93% 29.92 in 10.0 mi Calm Calm - N/A   Overcast
8:35 AM 32.0 °F - 30.2 °F 93% 29.93 in 10.0 mi Calm Calm - N/A   Overcast
8:55 AM 32.0 °F - 32.0 °F 100% 29.93 in 10.0 mi Calm Calm - N/A   Overcast
9:15 AM 32.0 °F 28.7 °F 32.0 °F 100% 29.95 in 10.0 mi WSW 3.5 mph - N/A   Overcast
9:35 AM 32.0 °F - 30.2 °F 93% 29.95 in 10.0 mi Calm Calm - N/A   Overcast
9:55 AM 33.8 °F - 30.2 °F 87% 29.96 in 10.0 mi Calm Calm - N/A   Overcast
10:15 AM 33.8 °F 29.6 °F 32.0 °F 93% 29.97 in 10.0 mi SSW 4.6 mph - N/A   Overcast
10:35 AM 33.8 °F 29.6 °F 30.2 °F 87% 29.97 in 10.0 mi South 4.6 mph - N/A   Overcast
10:55 AM 33.8 °F 29.6 °F 30.2 °F 87% 29.98 in 10.0 mi South 4.6 mph - N/A   Overcast
11:15 AM 33.8 °F 27.0 °F 28.4 °F 81% 29.98 in 10.0 mi South 8.1 mph - N/A   Overcast
11:35 AM 35.6 °F 31.7 °F 26.6 °F 70% 29.98 in 10.0 mi SSE 4.6 mph - N/A   Overcast
11:55 AM 35.6 °F 32.8 °F 26.6 °F 70% 29.98 in 10.0 mi SSE 3.5 mph - N/A   Overcast
12:15 PM 35.6 °F - 26.6 °F 70% 29.98 in 10.0 mi Calm Calm - N/A   Overcast
12:35 PM 35.6 °F - 26.6 °F 70% 29.98 in 10.0 mi Calm Calm - N/A   Overcast
12:55 PM 35.6 °F 29.9 °F 28.4 °F 75% 29.98 in 10.0 mi South 6.9 mph - N/A   Overcast
1:15 PM 35.6 °F 29.9 °F 28.4 °F 75% 29.98 in 10.0 mi South 6.9 mph - N/A   Overcast
1:35 PM 35.6 °F 30.7 °F 28.4 °F 75% 29.97 in 10.0 mi SSW 5.8 mph - N/A   Overcast
1:55 PM 35.6 °F 31.7 °F 30.2 °F 81% 29.98 in 10.0 mi SSW 4.6 mph - N/A   Overcast
2:15 PM 35.6 °F 31.7 °F 30.2 °F 81% 29.97 in 10.0 mi SE 4.6 mph - N/A   Overcast
2:35 PM 35.6 °F - 28.4 °F 75% 29.98 in 10.0 mi Calm Calm - N/A   Overcast
2:55 PM 35.6 °F 30.7 °F 28.4 °F 75% 29.98 in 10.0 mi SW 5.8 mph - N/A Snow Light Snow
3:15 PM 37.4 °F 32.8 °F 28.4 °F 70% 29.97 in 10.0 mi SE 5.8 mph - N/A   Overcast
3:35 PM 37.4 °F - 28.4 °F 70% 29.98 in 10.0 mi North - - N/A   Overcast
3:55 PM 32.0 °F - 32.0 °F 100% 29.99 in 0.8 mi Calm Calm - N/A Snow Light Snow
4:15 PM 32.0 °F 27.5 °F 32.0 °F 100% 29.99 in 3.0 mi SSE 4.6 mph - N/A Snow Light Snow
4:35 PM 33.8 °F 28.6 °F 32.0 °F 93% 29.99 in 7.0 mi SE 5.8 mph - N/A Snow Light Snow
4:55 PM 35.6 °F 30.7 °F 32.0 °F 87% 29.98 in 10.0 mi SE 5.8 mph - N/A   Overcast
5:15 PM 35.6 °F 29.2 °F 30.2 °F 81% 29.98 in 10.0 mi South 8.1 mph - N/A   Overcast
5:35 PM 35.6 °F 32.8 °F 30.2 °F 81% 29.98 in 10.0 mi South 3.5 mph - N/A   Overcast
5:55 PM 35.6 °F 30.7 °F 30.2 °F 81% 29.98 in 10.0 mi SW 5.8 mph - N/A   Overcast
6:15 PM 35.6 °F 29.2 °F 32.0 °F 87% 29.99 in 10.0 mi SSW 8.1 mph - N/A   Overcast
6:35 PM 33.8 °F 27.7 °F 32.0 °F 93% 30.00 in 10.0 mi South 6.9 mph - N/A   Overcast
6:55 PM 33.8 °F 27.7 °F 32.0 °F 93% 30.00 in 10.0 mi SSE 6.9 mph - N/A   Overcast
7:15 PM 32.0 °F 25.6 °F 32.0 °F 100% 30.00 in 10.0 mi SSE 6.9 mph - N/A   Overcast
7:35 PM 33.8 °F 29.6 °F 30.2 °F 87% 30.00 in 10.0 mi SSE 4.6 mph - N/A   Mostly Cloudy
7:55 PM 32.0 °F 23.0 °F 30.2 °F 93% 30.00 in 10.0 mi South 11.5 mph - N/A   Overcast
8:15 PM 32.0 °F 24.2 °F 30.2 °F 93% 30.01 in 10.0 mi SSW 9.2 mph - N/A   Mostly Cloudy
8:55 PM 32.0 °F 27.5 °F 28.4 °F 87% 30.01 in 10.0 mi SSE 4.6 mph - N/A   Mostly Cloudy
9:15 PM 32.0 °F 24.8 °F 28.4 °F 87% 30.01 in 10.0 mi SSE 8.1 mph - N/A   Scattered Clouds
9:35 PM 32.0 °F 24.2 °F 28.4 °F 87% 30.00 in 10.0 mi SSE 9.2 mph - N/A   Clear
9:55 PM 33.8 °F 27.0 °F 28.4 °F 81% 30.00 in 10.0 mi SSE 8.1 mph - N/A   Mostly Cloudy
10:15 PM 32.0 °F 24.8 °F 28.4 °F 87% 30.00 in 10.0 mi South 8.1 mph - N/A   Scattered Clouds
10:35 PM 32.0 °F 24.2 °F 28.4 °F 87% 29.99 in 10.0 mi South 9.2 mph - N/A   Mostly Cloudy
10:55 PM 33.8 °F 25.8 °F 28.4 °F 81% 29.99 in 10.0 mi SSE 10.4 mph - N/A   Overcast
11:15 PM 33.8 °F 26.4 °F 28.4 °F 81% 29.99 in 10.0 mi South 9.2 mph - N/A   Overcast
11:35 PM 33.8 °F 24.8 °F 28.4 °F 81% 29.99 in 10.0 mi South 12.7 mph - N/A   Overcast
11:55 PM 33.8 °F 24.8 °F 30.2 °F 87% 30.00 in 10.0 mi South 12.7 mph - N/A   Overcast